Location: Clyde
(45.1830°S, 169.3170°E)
Time: 11:25:13
(UTC+12:00)

Cosmos 1437 Rocket - Pass Details

Date: 14 May 2021
Orbit: 501 x 565 km, 81.2° (Epoch: 15 June)

Event Time Altitude Azimuth Distance (km) Brightness Sun altitude
Rises 18:20:59 0° 181° (S) 2,650 6.1 -10.1°
Reaches altitude 10° 18:23:22 10° 169° (S) 1,752 5.1 -10.5°
Maximum altitude 18:26:43 28° 108° (ESE) 988 3.5 -11.0°
Drops below altitude 10° 18:30:02 10° 47° (NE) 1,729 5.0 -11.6°
Sets 18:32:22 0° 35° (NE) 2,608 6.1 -12.0°
